COSMOS 2298 DEB

Satellite information

Favourite Embed

Satellite Type and Status

DEBRISIN ORBIT

Key statistics

Satellite COSMOS 2298 DEB at a glance.

Uptime

11317

Days in orbit

Revolutions

≈ 14.4

Per day

Orbit

LEO

Low Earth Orbit

Inclination

74.0

Latest

Satellite identification and parameters

Extended collection of information and parameters for COSMOS 2298 DEB.

Object identification

Identified? True

Debris? True

Object name: COSMOS 2298 DEB

International designator: 1994-083C

Object number (NORAD): 23433

Object ID (CCSDS): 23433

Country: COMMONWEALTH OF INDEPENDENT STATES (CIS)

Current information (Y/N): Y

RCS size: SMALL

Orbital parameters

Period: 99.681 minutes

Inclination: 74.0071 deg

SMA: 7121.429 km

Apoapsis: 751.577 km

Periapsis: 735.011 km

RAAN: 279.5722 deg

Eccentricy: 0.0011631

Argument of periapsis: 274.9488 deg

Mean anomaly: 243.0718 deg

Mean motion: 14.44614847 rev/day

Mean motion (dot): 0.00002348 rev/day2

B* drag term: 0.00068534598 1/REarth

Two-line elements (TLE)

Creation date: Dec. 12, 2025, 10:14 a.m.

Reference frame: TEME

Reference center: EARTH

Epoch: Dec. 12, 2025, 6:15 a.m. UTC

TLE line 0: 0 COSMOS 2298 DEB

TLE line 1: 1 23433U 94083C 25346.26093353 .00002348 00000-0 68535-3 0 9997

TLE line 2: 2 23433 74.0071 279.5722 0011631 274.9488 243.0718 14.44614847623104

Live tracking on map

Real-time ground track for satellite COSMOS 2298 DEB.

In-orbit conjunctions

A list of the most updated potential collisions computed for object COSMOS 2298 DEB.

Target Orbit TCA Probability of collision Miss distance Type
FENGYUN 1C DEB SSO 2025-11-11 22:49:54 0.0002864811 122.0 (m) DEBRIS
NOAA 16 DEB SSO 2024-11-11 11:48:34 0.0001839421 638.0 (m) DEBRIS
IRIDIUM 69 LEO 2024-09-11 03:53:33 0.007745781 36.0 (m) PAYLOAD

Associated space launch

Military communications satellite

COSMOS 2298 DEB was lifted into orbit during the mission ‘Kosmos-3M | Strela-2M 52’, on board a Kosmos-3M space rocket.

The launch took place on Dec. 20, 1994, 5:11 a.m. from 132/1 (132L).

For more information about the launch, click the button.

Launch to space Kosmos-3M | Strela-2M 52
Kosmos-3M | Strela-2M 52

Agency: N/A

Status: Launch Successful

Launch date: Dec. 20, 1994, 5:11 a.m. UTC

Rocket: Kosmos-3M

Launch pad: 132/1 (132L)

Location: Plesetsk Cosmodrome, Russian Federation

...

Latest news about this satellite

There are no fresh news available about this satellite. Check back as we update our databases every day.


Newsletter sign-up

Weekly statistics, charts and insights to help you stay on top of the space industry.